TimeCST,TemperatureF,Dew PointF,Humidity,Sea Level PressureIn,VisibilityMPH,Wind Direction,Wind SpeedMPH,Gust SpeedMPH,PrecipitationIn,Events,Conditions,WindDirDegrees,DateUTC
12:08 AM,59.0,53.6,82,29.84,10.0,Calm,Calm,-,N/A,,Overcast,0,2012-12-16 06:08:00
12:21 AM,59.0,53.6,82,29.84,10.0,NNW,4.6,-,N/A,,Overcast,330,2012-12-16 06:21:00
12:25 AM,59.0,53.6,82,29.84,10.0,NNW,3.5,-,N/A,,Overcast,330,2012-12-16 06:25:00
12:48 AM,59.0,53.6,82,29.82,10.0,ESE,3.5,-,N/A,,Scattered Clouds,110,2012-12-16 06:48:00
12:55 AM,58.8,53.4,82,29.81,10.0,Calm,Calm,-,N/A,,Scattered Clouds,0,2012-12-16 06:55:00
12:58 AM,59.0,53.6,82,29.81,10.0,ESE,3.5,-,N/A,,Mostly Cloudy,120,2012-12-16 06:58:00
1:06 AM,59.0,51.8,77,29.81,10.0,Calm,Calm,-,N/A,,Mostly Cloudy,0,2012-12-16 07:06:00
1:10 AM,60.8,50.0,68,29.81,10.0,Calm,Calm,-,N/A,,Mostly Cloudy,0,2012-12-16 07:10:00
1:13 AM,60.8,48.2,63,29.81,10.0,Calm,Calm,-,N/A,,Mostly Cloudy,0,2012-12-16 07:13:00
1:28 AM,60.8,51.8,72,29.81,10.0,NNW,5.8,-,N/A,,Overcast,340,2012-12-16 07:28:00
1:30 AM,60.8,51.8,72,29.81,10.0,North,4.6,-,N/A,,Overcast,350,2012-12-16 07:30:00
1:45 AM,60.8,53.6,77,29.82,10.0,NW,5.8,-,N/A,,Overcast,320,2012-12-16 07:45:00
1:55 AM,60.8,52.3,74,29.80,10.0,North,4.6,-,N/A,,Overcast,360,2012-12-16 07:55:00
1:59 AM,60.8,51.8,72,29.78,10.0,North,3.5,-,N/A,,Overcast,10,2012-12-16 07:59:00
2:28 AM,60.8,51.8,72,29.79,10.0,NE,4.6,-,N/A,,Overcast,40,2012-12-16 08:28:00
2:29 AM,60.8,53.6,77,29.78,10.0,NE,4.6,-,N/A,,Overcast,50,2012-12-16 08:29:00
2:38 AM,60.8,53.6,77,29.80,10.0,Calm,Calm,-,N/A,,Overcast,0,2012-12-16 08:38:00
2:50 AM,60.8,55.4,82,29.79,10.0,Calm,Calm,-,N/A,,Overcast,0,2012-12-16 08:50:00
2:55 AM,61.3,55.2,80,29.79,10.0,North,3.5,-,N/A,,Overcast,360,2012-12-16 08:55:00
3:02 AM,60.8,55.4,82,29.80,10.0,Calm,Calm,-,N/A,,Overcast,0,2012-12-16 09:02:00
3:08 AM,60.8,55.4,82,29.78,10.0,Calm,Calm,-,N/A,,Light Drizzle,0,2012-12-16 09:08:00
3:21 AM,60.8,57.2,88,29.79,10.0,Calm,Calm,-,N/A,,Overcast,0,2012-12-16 09:21:00
3:22 AM,60.8,57.2,88,29.79,10.0,Calm,Calm,-,N/A,,Overcast,0,2012-12-16 09:22:00
3:55 AM,61.7,59.0,91,29.81,10.0,NW,4.6,-,0.00,,Overcast,310,2012-12-16 09:55:00
4:33 AM,62.6,57.2,82,29.83,10.0,NW,3.5,-,N/A,,Light Drizzle,310,2012-12-16 10:33:00
4:52 AM,60.8,57.2,88,29.82,10.0,North,5.8,-,N/A,Rain,Light Rain,350,2012-12-16 10:52:00
4:55 AM,61.3,57.4,87,29.82,10.0,NNW,12.7,-,0.00,Rain,Light Rain,340,2012-12-16 10:55:00
5:05 AM,60.8,60.8,100,29.83,10.0,NW,12.7,21.9,N/A,Rain,Light Rain,310,2012-12-16 11:05:00
5:17 AM,62.6,62.6,100,29.83,8.0,NW,9.2,-,N/A,Rain,Light Rain,310,2012-12-16 11:17:00
5:18 AM,62.6,62.6,100,29.84,8.0,NW,10.4,-,N/A,Rain,Light Rain,310,2012-12-16 11:18:00
5:33 AM,62.6,62.6,100,29.82,8.0,Calm,Calm,-,N/A,Rain,Light Rain,0,2012-12-16 11:33:00
5:35 AM,62.6,62.6,100,29.82,9.0,Calm,Calm,-,N/A,Rain,Light Rain,0,2012-12-16 11:35:00
5:52 AM,62.6,62.6,100,29.82,8.0,NNW,4.6,-,N/A,Rain,Light Rain,340,2012-12-16 11:52:00
5:55 AM,62.1,62.1,100,29.83,7.0,NNW,10.4,-,0.01,Rain,Light Rain,340,2012-12-16 11:55:00
6:19 AM,62.6,62.6,100,29.82,9.0,Calm,Calm,-,N/A,,Light Drizzle,0,2012-12-16 12:19:00
6:23 AM,62.6,62.6,100,29.82,9.0,SSE,3.5,-,N/A,,Clear,150,2012-12-16 12:23:00
6:30 AM,60.8,60.8,100,29.82,8.0,Calm,Calm,-,N/A,,Light Drizzle,0,2012-12-16 12:30:00
6:40 AM,60.8,60.8,100,29.82,7.0,Calm,Calm,-,N/A,Rain,Light Rain,0,2012-12-16 12:40:00
6:42 AM,60.8,60.8,100,29.81,7.0,NNE,3.5,-,N/A,Rain,Light Rain,30,2012-12-16 12:42:00
6:52 AM,60.8,60.8,100,29.82,7.0,Calm,Calm,-,N/A,,Clear,0,2012-12-16 12:52:00
6:55 AM,61.3,61.3,100,29.82,8.0,NE,3.5,-,0.01,,Clear,40,2012-12-16 12:55:00
7:01 AM,60.8,60.8,100,29.81,8.0,ESE,3.5,-,N/A,,Light Drizzle,110,2012-12-16 13:01:00
7:24 AM,60.8,60.8,100,29.83,6.0,Calm,Calm,-,N/A,Rain,Light Rain,0,2012-12-16 13:24:00
7:27 AM,60.8,60.8,100,29.83,6.0,Calm,Calm,-,N/A,Rain,Light Rain,0,2012-12-16 13:27:00
7:37 AM,60.8,60.8,100,29.83,5.0,Calm,Calm,-,N/A,,Clear,0,2012-12-16 13:37:00
7:47 AM,60.8,60.8,100,29.83,4.0,ESE,3.5,-,N/A,,Clear,110,2012-12-16 13:47:00
7:49 AM,60.8,60.8,100,29.84,5.0,ESE,3.5,-,N/A,,Clear,120,2012-12-16 13:49:00
7:55 AM,60.6,60.6,100,29.83,5.0,ESE,4.6,-,0.00,,Clear,120,2012-12-16 13:55:00
7:56 AM,60.8,60.8,100,29.83,5.0,SE,4.6,-,N/A,Rain,Light Rain,130,2012-12-16 13:56:00
7:57 AM,60.8,60.8,100,29.83,4.0,SE,4.6,-,N/A,,Light Drizzle,140,2012-12-16 13:57:00
8:08 AM,60.8,60.8,100,29.85,4.0,SSW,3.5,-,N/A,,Light Drizzle,200,2012-12-16 14:08:00
8:09 AM,60.8,60.8,100,29.85,5.0,SSW,3.5,-,N/A,,Light Drizzle,210,2012-12-16 14:09:00
8:12 AM,60.8,60.8,100,29.85,5.0,SW,3.5,-,N/A,,Scattered Clouds,220,2012-12-16 14:12:00
8:16 AM,60.8,60.8,100,29.86,6.0,WNW,5.8,-,N/A,,Light Drizzle,290,2012-12-16 14:16:00
8:17 AM,60.8,60.8,100,29.86,6.0,WNW,6.9,-,N/A,,Light Drizzle,290,2012-12-16 14:17:00
8:26 AM,62.6,62.6,100,29.84,4.0,West,5.8,-,N/A,Rain,Light Rain,260,2012-12-16 14:26:00
8:27 AM,62.6,62.6,100,29.83,5.0,WSW,4.6,-,N/A,Rain,Light Rain,250,2012-12-16 14:27:00
8:37 AM,62.6,62.6,100,29.83,6.0,SW,3.5,-,N/A,,Overcast,220,2012-12-16 14:37:00
8:39 AM,62.6,62.6,100,29.83,6.0,SW,3.5,-,N/A,,Overcast,220,2012-12-16 14:39:00
8:55 AM,62.6,62.6,100,29.81,6.0,South,6.9,-,0.01,,Overcast,180,2012-12-16 14:55:00
9:01 AM,62.6,62.6,100,29.81,6.0,SSW,6.9,-,N/A,,Overcast,200,2012-12-16 15:01:00
9:20 AM,62.6,62.6,100,29.81,4.0,SSW,6.9,-,N/A,,Overcast,200,2012-12-16 15:20:00
9:34 AM,64.4,64.4,100,29.85,5.0,NNW,12.7,21.9,N/A,,Overcast,330,2012-12-16 15:34:00
9:41 AM,64.4,64.4,100,29.85,8.0,NW,15.0,23.0,N/A,,Overcast,310,2012-12-16 15:41:00
9:42 AM,64.4,64.4,100,29.85,8.0,NW,16.1,23.0,N/A,,Overcast,310,2012-12-16 15:42:00
9:50 AM,66.2,64.4,94,29.84,9.0,NW,15.0,-,N/A,,Overcast,320,2012-12-16 15:50:00
9:55 AM,65.8,65.7,99,29.85,10.0,NW,11.5,-,N/A,,Mostly Cloudy,310,2012-12-16 15:55:00
9:57 AM,66.2,66.2,100,29.85,10.0,WNW,10.4,-,N/A,,Mostly Cloudy,300,2012-12-16 15:57:00
9:58 AM,66.2,66.2,100,29.85,10.0,NW,10.4,-,N/A,,Mostly Cloudy,310,2012-12-16 15:58:00
10:02 AM,66.2,66.2,100,29.85,10.0,NW,10.4,-,N/A,,Scattered Clouds,320,2012-12-16 16:02:00
10:55 AM,66.2,62.4,88,29.83,10.0,NNW,9.2,-,N/A,,Clear,330,2012-12-16 16:55:00
11:55 AM,68.5,54.9,62,29.82,10.0,NNW,10.4,-,N/A,,Clear,330,2012-12-16 17:55:00
12:55 PM,69.4,50.7,51,29.81,10.0,NNW,8.1,-,N/A,,Clear,340,2012-12-16 18:55:00
1:55 PM,69.1,45.3,42,29.79,10.0,NNW,8.1,-,N/A,,Clear,340,2012-12-16 19:55:00
2:55 PM,68.7,46.2,44,29.78,10.0,North,6.9,-,N/A,,Clear,350,2012-12-16 20:55:00
3:55 PM,69.6,46.0,43,29.77,10.0,NNW,4.6,-,N/A,,Clear,330,2012-12-16 21:55:00
4:55 PM,67.1,49.3,53,29.77,10.0,Calm,Calm,-,N/A,,Clear,0,2012-12-16 22:55:00
5:55 PM,63.1,48.9,60,29.77,10.0,SW,3.5,-,N/A,,Clear,220,2012-12-16 23:55:00
6:55 PM,58.5,48.7,70,29.78,10.0,WNW,3.5,-,N/A,,Clear,300,2012-12-17 00:55:00
7:55 PM,58.3,48.7,71,29.82,10.0,Calm,Calm,-,N/A,,Clear,0,2012-12-17 01:55:00
8:55 PM,55.4,49.1,79,29.83,10.0,Calm,Calm,-,N/A,,Clear,0,2012-12-17 02:55:00
9:55 PM,52.2,48.6,88,29.85,10.0,Calm,Calm,-,N/A,,Clear,0,2012-12-17 03:55:00
10:55 PM,49.6,48.6,96,29.86,10.0,NW,5.8,-,N/A,,Clear,320,2012-12-17 04:55:00
11:55 PM,48.4,46.6,93,29.87,10.0,Calm,Calm,-,N/A,,Clear,0,2012-12-17 05:55:00